Wind_Speed
13 15 17 18 19 20 19 19 19 18 18 17 17 17 18 18 17 17 17 17 16 16 16 16 17 17 17 18 18 19 19 20 21 21 22 23 23 24 24 25 25 25 25
12 14 15 17 18 19 19 18 19 19 18 18 17 17 18 18 19 18 18 18 18 18 18 19 19 20 20 21 21 22 23 24 24 25 26 26 27 27 27 28 28 28 28
11 12 14 15 17 17 18 18 18 19 18 18 19 19 19 20 21 21 20 20 20 20 21 22 22 23 24 24 24 25 26 27 28 28 29 29 29 30 30 30 31 31 31
10 11 12 14 15 16 17 18 18 18 19 19 20 20 21 21 21 22 23 23 23 24 24 25 25 26 26 26 27 27 28 29 30 31 32 32 32 33 33 33 33 33 34
11 12 13 14 16 16 17 18 18 19 19 20 21 21 21 22 23 24 25 26 27 27 28 28 28 28 29 29 30 31 31 32 33 34 34 35 35 35 35 35 36 36 37
12 13 14 15 17 18 18 18 18 19 20 20 21 22 22 23 24 25 26 27 29 29 30 31 31 31 32 33 34 34 34 35 35 35 36 37 37 37 37 37 37 37 38
13 15 16 17 17 18 19 19 19 20 21 22 22 23 23 24 25 26 27 28 29 31 31 32 33 34 35 36 37 37 38 38 38 37 37 38 38 39 40 40 39 39 39
15 16 17 18 19 20 20 21 22 23 23 24 25 26 26 26 28 29 30 31 32 33 34 34 35 36 36 38 39 39 40 40 40 41 40 40 41 41 42 42 42 42 42
17 18 19 19 21 22 23 23 24 25 26 27 27 28 28 29 31 32 33 33 34 35 36 36 37 37 39 40 41 41 41 42 43 43 43 43 44 44 45 45 46 46 46
19 20 21 22 23 24 25 26 26 27 28 29 30 31 32 33 34 35 35 36 36 37 39 39 40 41 42 43 43 44 44 45 46 45 45 46 46 47 48 48 48 49 49
21 22 23 23 25 27 27 27 28 29 30 31 32 33 34 35 36 37 38 39 40 40 41 42 43 43 44 45 46 47 47 47 48 48 48 49 49 49 50 50 51 51 52
23 24 24 25 26 27 29 29 30 31 32 33 34 35 36 38 39 40 41 42 43 43 43 44 45 45 46 47 48 48 48 49 49 50 50 51 51 51 52 52 53 54 54
26 26 26 27 28 28 30 31 32 33 34 34 35 36 38 40 41 42 43 44 44 44 45 46 47 47 48 49 49 49 50 50 51 51 52 52 53 53 54 54 55 55 54
26 27 28 29 29 30 30 31 33 34 35 37 38 38 38 40 41 43 45 45 47 48 48 48 48 50 50 50 50 50 51 52 52 53 54 54 54 54 55 55 55 55 55
28 29 29 29 30 31 32 32 32 32 34 35 37 38 39 40 41 43 44 45 46 47 48 48 49 49 50 50 50 52 53 53 53 54 54 54 54 55 55 55 56 56 55
29 29 29 29 29 30 31 31 31 33 34 35 36 38 39 40 41 42 42 43 44 46 47 47 48 49 49 50 51 52 53 54 55 55 55 55 54 54 54 55 55 55 55
28 29 29 28 28 28 29 30 32 34 35 36 37 38 39 40 41 42 43 44 46 47 48 48 48 49 50 51 52 53 54 55 55 56 55 55 55 54 54 54 55 54 54
27 27 28 28 28 29 30 31 32 33 35 36 38 39 40 41 42 43 45 46 47 48 48 48 49 50 51 52 52 51 52 53 54 54 54 54 53 53 53 53 53 52 52
23 24 24 25 27 28 30 32 33 34 36 38 40 41 41 43 44 45 46 47 48 48 48 48 49 50 50 51 51 51 52 52 52 52 51 51 50 51 51 52 52 52 51
22 24 25 26 28 30 31 33 34 36 38 40 41 42 43 44 46 46 47 47 47 47 48 48 49 49 50 50 50 50 50 49 49 49 49 49 49 50 50 50 50 50 49
23 25 26 28 30 32 33 35 37 38 40 41 42 43 44 45 46 46 46 46 46 46 47 47 47 47 47 47 47 47 47 47 47 47 48 48 49 48 48 47 47 46 46
26 27 29 31 33 34 36 37 38 40 41 42 44 45 45 46 46 45 45 45 45 45 45 44 44 44 44 45 45 44 44 44 44 44 45 45 45 44 43 42 41 41 42
28 30 32 33 35 36 38 39 40 41 42 43 44 45 44 44 44 44 43 43 42 41 41 41 41 41 41 41 41 41 40 40 40 40 40 40 39 39 39 38 38 37 37
31 33 35 36 38 39 40 40 41 42 43 42 42 42 42 42 41 40 40 39 38 38 37 37 37 37 38 38 37 36 35 36 36 36 35 35 35 35 35 34 34 34 33
34 35 37 38 39 39 39 40 41 41 41 40 40 40 39 39 38 37 36 36 35 35 35 35 35 35 34 33 32 32 32 33 33 32 31 31 30 30 30 29 29 28 28
35 36 37 38 38 38 38 39 39 38 38 38 37 37 37 36 36 35 35 34 34 33 33 32 31 30 30 30 30 30 30 30 30 29 28 27 26 25 24 23 23 23 23
Wind_Direction
198 199 202 206 207 207 209 211 212 212 215 216 217 219 221 224 226 228 231 237 242 248 254 261 266 270 272 273 276 277 279 280 282 283 285 285 285 286 287 288 289 290 289
204 204 206 208 208 209 210 213 214 217 221 221 223 225 226 229 232 234 237 241 247 254 259 264 269 271 274 275 275 277 278 280 282 283 284 285 285 285 286 287 288 288 288
210 210 211 211 210 211 213 216 220 222 224 225 227 228 231 234 237 238 242 246 252 256 261 265 270 272 275 275 276 277 278 279 281 282 283 285 286 286 286 286 287 287 287
214 214 214 213 213 215 218 221 224 228 230 231 232 234 237 238 241 244 248 252 257 260 263 267 270 273 276 277 278 280 281 282 282 283 284 284 285 286 286 285 286 286 286
220 219 220 220 220 221 223 226 229 232 234 237 239 242 245 245 248 250 253 257 260 263 266 268 271 273 275 277 279 281 282 284 284 283 283 283 284 285 285 284 285 286 286
230 229 230 230 229 229 231 231 232 235 238 240 244 246 250 252 253 255 257 260 263 265 268 270 273 275 276 278 279 280 282 283 284 284 283 283 283 283 284 284 285 286 286
238 236 236 236 236 237 238 239 241 242 243 245 248 252 255 257 258 260 262 264 267 268 269 271 273 275 277 279 280 280 281 282 283 284 284 284 283 283 283 284 285 285 285
247 245 243 240 240 241 242 244 246 248 249 250 253 256 257 260 262 265 266 267 270 271 271 272 274 276 277 279 280 280 281 282 282 283 284 285 284 284 283 283 284 284 284
250 250 249 247 245 245 247 248 249 252 253 254 256 258 260 263 265 267 269 271 272 273 274 275 276 277 277 279 279 279 280 281 282 283 283 283 283 283 283 283 283 284 284
252 252 252 251 250 250 251 253 254 255 256 257 260 262 264 266 267 269 270 271 272 273 274 276 276 277 277 278 279 280 281 281 282 283 283 284 284 283 284 284 284 284 284
253 253 254 255 254 253 255 256 257 259 261 262 264 265 266 268 269 270 271 272 273 273 275 276 277 277 278 279 281 281 282 282 282 282 283 284 283 284 284 284 285 285 285
255 256 257 258 258 257 257 258 259 261 263 266 267 268 269 270 271 272 273 274 274 275 276 277 278 278 278 280 281 282 281 281 283 283 283 284 283 283 284 284 284 285 285
256 257 257 259 261 263 262 262 263 265 267 268 270 272 271 271 272 273 274 275 275 276 277 277 279 279 279 281 281 281 282 282 283 283 283 284 284 284 284 284 284 284 285
257 259 260 260 261 263 265 265 266 267 268 269 272 274 276 275 275 276 277 277 277 278 278 278 279 280 281 281 281 282 283 283 284 284 285 285 285 285 284 285 284 284 284
258 259 260 262 266 267 267 268 268 270 271 273 275 275 277 278 278 278 278 277 278 279 280 280 281 281 282 282 282 283 284 285 285 285 285 285 284 285 284 284 284 284 285
257 259 261 264 267 266 267 269 271 274 276 278 279 279 280 280 280 280 281 280 281 282 283 283 282 283 283 284 285 284 284 284 284 284 285 285 285 285 284 284 284 285 285
259 261 262 266 267 269 271 274 276 277 278 279 280 281 282 282 283 284 284 284 284 284 284 284 284 284 284 286 286 286 285 286 286 286 285 285 285 284 283 283 284 285 286
262 264 265 268 270 272 275 278 280 281 281 283 284 283 283 284 285 285 286 287 286 286 286 286 286 285 286 287 287 287 287 287 287 286 286 285 285 285 285 285 286 287 287
268 270 272 275 277 279 281 282 283 284 285 286 286 286 286 287 287 287 287 288 288 288 288 287 287 288 288 288 288 287 287 286 286 285 286 285 285 285 286 286 286 287 286
277 279 281 282 283 284 285 286 287 288 288 289 289 290 290 290 290 290 291 291 291 290 290 289 289 288 288 288 288 287 288 287 286 285 285 286 286 286 286 286 285 285 285
283 284 285 286 287 287 288 289 289 290 291 291 291 292 292 293 293 293 292 293 293 292 292 291 291 290 290 289 289 289 288 287 286 286 286 285 285 285 285 284 284 283 283
288 288 289 289 290 290 291 291 292 292 293 293 293 294 294 295 294 294 294 294 294 294 293 292 292 291 291 290 290 290 289 289 288 287 287 287 286 285 285 285 285 284 284
291 291 292 293 293 293 293 293 293 295 295 296 296 296 296 296 296 295 294 293 293 293 294 293 293 293 293 293 293 293 292 291 291 290 290 289 288 287 287 286 286 287 287
294 295 295 296 295 295 296 296 297 297 298 298 298 298 298 297 296 294 294 293 293 294 295 295 294 294 295 296 296 295 295 295 295 294 294 293 292 290 289 288 288 287 287
298 298 298 298 298 298 298 298 299 299 299 299 299 299 299 298 296 295 294 294 294 295 296 296 297 297 297 297 298 298 297 297 297 297 297 296 295 294 292 291 290 289 289
300 300 300 300 299 299 299 300 300 299 299 299 299 299 299 298 297 296 295 295 295 296 297 298 299 299 300 300 301 301 300 300 299 299 299 299 299 299 297 294 293 293 292
Height
5826 5828 5831 5835 5838 5841 5845 5847 5850 5853 5856 5858 5860 5863 5865 5867 5869 5871 5872 5873 5875 5875 5876 5877 5877 5877 5877 5876 5876 5875 5875 5874 5873 5872 5871 5870 5869 5868 5866 5865 5864 5862 5861
5826 5828 5831 5834 5836 5839 5842 5845 5848 5851 5853 5856 5858 5860 5862 5864 5866 5867 5869 5870 5871 5871 5872 5872 5872 5872 5872 5871 5871 5870 5870 5869 5868 5867 5865 5864 5863 5861 5860 5858 5857 5855 5854
5826 5828 5830 5832 5835 5838 5840 5843 5846 5848 5851 5853 5855 5857 5859 5860 5862 5863 5864 5866 5866 5867 5867 5867 5867 5867 5866 5866 5865 5864 5863 5863 5861 5860 5859 5857 5856 5854 5853 5851 5850 5848 5846
5825 5827 5829 5831 5833 5836 5838 5841 5844 5846 5848 5850 5852 5853 5854 5856 5857 5859 5860 5860 5861 5861 5862 5862 5861 5861 5860 5859 5859 5858 5856 5855 5854 5852 5851 5849 5848 5846 5845 5843 5841 5840 5838
5824 5826 5828 5830 5832 5834 5836 5838 5840 5842 5844 5846 5848 5849 5850 5851 5852 5853 5854 5855 5855 5856 5856 5855 5855 5854 5853 5853 5852 5851 5849 5848 5846 5844 5843 5841 5839 5837 5835 5834 5832 5830 5828
5822 5823 5825 5827 5829 5831 5833 5835 5837 5839 5841 5842 5843 5844 5845 5846 5847 5847 5848 5849 5849 5849 5849 5848 5848 5847 5846 5844 5843 5842 5841 5839 5837 5835 5834 5832 5830 5828 5825 5824 5822 5820 5818
5820 5821 5823 5824 5826 5828 5830 5831 5833 5835 5836 5837 5838 5839 5839 5840 5841 5841 5841 5842 5842 5842 5841 5840 5839 5838 5837 5836 5834 5833 5831 5829 5828 5826 5824 5822 5819 5817 5815 5813 5811 5810 5808
5817 5818 5819 5821 5822 5824 5826 5827 5829 5830 5831 5832 5832 5833 5834 5834 5835 5834 5834 5834 5834 5833 5832 5831 5830 5829 5827 5826 5824 5823 5821 5819 5817 5815 5814 5811 5809 5807 5804 5802 5800 5798 5797
5813 5814 5815 5816 5818 5819 5821 5822 5823 5824 5825 5825 5826 5826 5827 5827 5827 5827 5826 5826 5825 5824 5823 5822 5821 5819 5818 5815 5814 5812 5810 5808 5806 5804 5802 5800 5797 5795 5792 5790 5788 5785 5784
5807 5809 5810 5811 5813 5814 5815 5816 5817 5818 5818 5819 5819 5819 5819 5819 5819 5818 5817 5816 5816 5815 5813 5812 5810 5809 5807 5804 5802 5801 5799 5797 5794 5792 5789 5787 5784 5782 5779 5776 5774 5771 5769
5802 5803 5804 5805 5806 5807 5808 5809 5810 5810 5811 5811 5811 5811 5811 5810 5809 5809 5807 5807 5805 5804 5802 5800 5799 5797 5795 5792 5790 5789 5786 5783 5781 5778 5776 5773 5770 5768 5765 5762 5759 5757 5754
5796 5797 5798 5799 5799 5800 5801 5802 5802 5803 5803 5803 5802 5802 5801 5800 5799 5798 5797 5796 5794 5792 5791 5789 5786 5784 5782 5780 5777 5775 5773 5770 5767 5765 5762 5759 5756 5753 5750 5747 5744 5742 5739
5789 5790 5791 5792 5792 5793 5793 5794 5794 5794 5794 5793 5793 5792 5790 5789 5788 5787 5785 5784 5782 5780 5778 5776 5774 5771 5769 5767 5764 5761 5758 5755 5753 5750 5747 5744 5741 5738 5735 5732 5728 5725 5723
5782 5783 5783 5783 5784 5784 5785 5785 5785 5785 5784 5783 5782 5781 5779 5777 5776 5775 5773 5771 5769 5767 5765 5762 5760 5757 5755 5753 5750 5747 5743 5740 5737 5734 5731 5728 5725 5722 5719 5715 5712 5709 5706
5775 5775 5775 5775 5776 5776 5776 5776 5775 5775 5774 5773 5772 5770 5769 5767 5765 5763 5760 5758 5756 5754 5751 5749 5746 5743 5740 5737 5734 5731 5728 5725 5722 5718 5715 5711 5708 5705 5702 5699 5696 5692 5690
5767 5767 5767 5768 5767 5767 5767 5766 5765 5765 5764 5762 5761 5759 5757 5755 5753 5751 5748 5746 5743 5740 5738 5735 5732 5729 5726 5722 5719 5716 5713 5709 5706 5702 5699 5696 5692 5689 5686 5683 5679 5676 5673
5759 5759 5759 5759 5759 5758 5757 5757 5756 5755 5754 5752 5750 5748 5746 5744 5741 5739 5736 5733 5730 5727 5724 5721 5718 5714 5711 5708 5704 5700 5697 5693 5689 5686 5682 5679 5676 5672 5669 5666 5663 5659 5656
5751 5751 5751 5751 5750 5749 5748 5747 5746 5745 5743 5741 5739 5737 5735 5732 5729 5726 5723 5720 5717 5713 5710 5706 5703 5699 5696 5692 5689 5685 5681 5677 5673 5670 5666 5663 5659 5656 5653 5649 5646 5642 5639
5744 5744 5743 5743 5742 5741 5740 5738 5737 5735 5733 5730 5728 5725 5723 5719 5716 5713 5710 5706 5702 5698 5695 5691 5688 5684 5680 5677 5673 5669 5665 5661 5657 5654 5650 5647 5643 5640 5636 5633 5630 5626 5623
5737 5736 5736 5735 5734 5732 5731 5729 5727 5724 5722 5719 5716 5713 5710 5706 5703 5699 5695 5691 5687 5684 5680 5676 5673 5669 5665 5661 5657 5653 5649 5645 5642 5638 5635 5631 5627 5624 5621 5617 5614 5611 5608
5730 5729 5728 5727 5725 5723 5721 5719 5716 5714 5710 5707 5704 5700 5697 5693 5689 5685 5681 5677 5673 5669 5665 5661 5657 5653 5649 5645 5641 5638 5634 5630 5626 5623 5619 5615 5612 5608 5605 5602 5599 5596 5593
5723 5721 5720 5718 5715 5713 5710 5708 5705 5702 5698 5695 5691 5687 5683 5679 5675 5671 5667 5663 5659 5655 5651 5647 5643 5639 5635 5631 5627 5623 5619 5616 5612 5608 5604 5600 5596 5593 5590 5587 5584 5582 5579
5714 5712 5710 5707 5705 5702 5699 5696 5693 5689 5685 5681 5677 5673 5669 5665 5661 5657 5653 5649 5646 5642 5637 5633 5630 5626 5622 5618 5614 5610 5606 5602 5598 5594 5590 5587 5583 5580 5577 5574 5572 5569 5566
5705 5702 5699 5697 5694 5691 5687 5684 5680 5676 5672 5668 5664 5660 5656 5652 5648 5644 5640 5637 5633 5629 5625 5621 5618 5614 5610 5606 5602 5598 5594 5590 5586 5582 5579 5575 5572 5568 5566 5563 5560 5558 5555
5694 5691 5688 5685 5682 5678 5675 5671 5667 5663 5659 5656 5652 5648 5644 5640 5636 5632 5628 5625 5621 5617 5614 5610 5607 5603 5599 5595 5591 5587 5583 5580 5576 5572 5568 5565 5561 5558 5555 5553 5550 5548 5546
5684 5680 5677 5674 5670 5666 5663 5659 5655 5651 5648 5644 5640 5636 5632 5628 5624 5620 5617 5613 5610 5607 5603 5600 5596 5593 5589 5585 5582 5578 5574 5570 5567 5563 5559 5556 5553 5550 5547 5544 5542 5539 5537